Home > Weather > Tulkarm > Past weeks

Flag for Palestinian Territories Weather for the Past 2 Weeks in Tulkarm, West Bank, Palestinian Territories

Now
52 °F

Passing clouds.


Feels Like: 51 °F
Forecast: 49 / 63 °F
Wind: 3 mph from North

Location: Dov Airport

Current Time: Feb 8, 2016 at 6:18:12 AM

Latest Report: Feb 8, 2016 at 5:00 AM


Visibility: N/A

Pressure: 30.12 "Hg

Humidity: 88%

Dew point: 48 °F

Location of TulkarmLocation

Historic Weather in Tulkarm — Graph

°F

Tulkarm Temperature Yesterday

Maximum temperature yesterday: 59 °F (at 12:50 PM)
Minimum temperature yesterday: 52 °F (at 9:50 PM)
Average temperature yesterday: 56 °F

High & Low Weather Summary for the Past Weeks

 TemperatureHumidityPressure
High75 °F (Feb 4, 12:50 PM)93% (Jan 25, 11:50 PM)30.42 "Hg (Jan 25, 11:50 PM)
Low39 °F (Jan 28, 5:50 AM)22% (Feb 4, 12:50 PM)29.89 "Hg (Feb 7, 5:50 AM)
Average55 °F65%30.16 "Hg
* Reported Jan 24 6:00 AM — Feb 8 5:00 AM, Tulkarm, Weather by CustomWeather, © 2016

Note: Actual official high and low records may vary slightly from our data, if they occured in-between our weather recording intervals... More about our weather records

Advertising

Tulkarm Weather History for the Previous 24 Hours

 ConditionsComfort  
Time TempWeatherWind HumidityBarometerVisibility
5:00 AM
Mon, Feb 8
52 °FPassing clouds.3 mph88%30.12 "HgN/A
10:50 PM
Sun, Feb 7
52 °FLight rain. Passing clouds.8 mph88%30.12 "Hg5 mi
9:50 PM52 °FHeavy rain. Passing clouds.5 mph88%30.09 "Hg3 mi
8:50 PM54 °FPassing clouds.7 mph82%30.09 "HgN/A
7:50 PM54 °FPassing clouds.6 mph82%30.07 "HgN/A
6:50 PM57 °FPassing clouds.9 mph72%30.07 "HgN/A
5:50 PM57 °FPassing clouds.10 mph67%30.04 "HgN/A
5:02 PM57 °FRain. Broken clouds.13 mph77%30.01 "Hg6 mi
4:50 PM59 °FBroken clouds.14 mph68%30.01 "Hg5 mi
3:50 PM59 °FBroken clouds.14 mph68%29.98 "HgN/A
2:50 PM57 °FScattered clouds.14 mph67%29.98 "HgN/A
1:50 PM57 °FPartly sunny.20 mph77%29.98 "HgN/A
12:50 PM59 °FScattered clouds.12 mph68%29.98 "HgN/A
11:50 AM54 °FRain. Partly sunny.7 mph88%29.98 "HgN/A
10:50 AM54 °FRain. Partly sunny.13 mph82%29.98 "Hg6 mi
9:50 AM55 °FRain. Partly sunny.15 mph77%29.98 "Hg6 mi
8:50 AM54 °FPartly sunny.16 mph82%29.98 "HgN/A
7:50 AM57 °FPartly sunny.22 mph72%29.95 "HgN/A
6:50 AM57 °FPartly sunny.25 mph72%29.92 "HgN/A
Weather by CustomWeather, © 2016

See weather overviewHow to use our weather pages